ESTCube-1

operational
NORAD ID: 39161 Int'l Des: 2013-021 Owner: ESSP Country: EE
LEOCIRCULARRETROGRADESSO

Über ESTCube-1

Beschreibung wird geladen...

Live-Position

3D-Globus wird geladen...

Nächste Überflüge

Höhenverlauf

Altitude vs Time

uPlot chart will show altitude changes over time

Zweizeiliger Elementsatz

1 39161U 13021C 26063.15030628 .00002670 00000-0 35067-3 0 9998
2 39161 97.7431 120.9829 0008177 8.6946 351.4407 14.81043876689470
Epoch: 4. März 2026 • Age: 23 hours

Aktueller Status

Höhe 655.3 km
Geschwindigkeit 7.53 km/s
Subsatellitenpunkt -76.47°S, 125.73°E
Startdatum 7. Mai 2013
Alter 12.8 years
Typ other

Technische Details

Klassifizierung Payload
Masse 1.00 kg
Trockenmasse 1.00 kg
Gesamtmasse 1.00 kg
Länge 0.10 m
Durchmesser 0.10 m
Spannweite 0.10 m
Form Box
Hersteller ESSP/TARTU
Bus-Typ Cubesat 1U
Phasenstatus In Orbit
Besitzer/Staat ESSP/EE

Große Konstellationen

Loading constellations...